COSMOS 1420

Satellite information

Favourite Embed

Satellite Type and Status

PAYLOADIN ORBIT

Key statistics

Satellite COSMOS 1420 at a glance.

Uptime

15519

Days in orbit

Revolutions

≈ 14.3

Per day

Orbit

LEO

Low Earth Orbit

Inclination

74.0

Latest

Satellite identification and parameters

Extended collection of information and parameters for COSMOS 1420.

Object identification

Identified? True

Debris? False

Object name: COSMOS 1420

International designator: 1982-109A

Object number (NORAD): 13648

Object ID (CCSDS): 13648

Country: COMMONWEALTH OF INDEPENDENT STATES (CIS)

Current information (Y/N): Y

RCS size: LARGE

Orbital parameters

Period: 100.374 minutes

Inclination: 73.9944 deg

SMA: 7154.421 km

Apoapsis: 789.886 km

Periapsis: 762.686 km

RAAN: 206.4505 deg

Eccentricy: 0.0019009

Argument of periapsis: 47.9514 deg

Mean anomaly: 312.3251 deg

Mean motion: 14.34633734 rev/day

Mean motion (dot): 0.00000147 rev/day2

B* drag term: 0.000061163 1/REarth

Two-line elements (TLE)

Creation date: May 8, 2025, 3:01 a.m.

Reference frame: TEME

Reference center: EARTH

Epoch: May 7, 2025, 10:19 p.m. UTC

TLE line 0: 0 COSMOS 1420

TLE line 1: 1 13648U 82109A 25127.93009920 .00000147 00000-0 61163-4 0 9994

TLE line 2: 2 13648 73.9944 206.4505 0019009 47.9514 312.3251 14.34633734221461

Live tracking on map

Real-time ground track for satellite COSMOS 1420.

In-orbit conjunctions

A list of the most updated potential collisions computed for object COSMOS 1420.

Target Orbit TCA Probability of collision Miss distance Type
CZ-6A DEB SSO 2025-02-18 12:43:07 0.0001503038 364.0 (m) DEBRIS
NOAA 16 DEB SSO 2025-02-11 10:52:45 0.0002392647 418.0 (m) DEBRIS
CZ-6A DEB LEO 2025-01-11 05:05:06 0.0003943311 434.0 (m) DEBRIS
FENGYUN 1C DEB SSO 2024-12-15 13:49:16 0.0001560078 456.0 (m) DEBRIS
CZ-6A DEB SSO 2024-11-24 10:20:07 0.0001166558 182.0 (m) DEBRIS

Associated space launch

Military communications satellite

COSMOS 1420 was lifted into orbit during the mission ‘Kosmos-3M | Strela-2M 30’, on board a Kosmos-3M space rocket.

The launch took place on Nov. 11, 1982, 6:14 a.m. from 132/1 (132L).

For more information about the launch, click the button.

Launch to space Kosmos-3M | Strela-2M 30
Kosmos-3M | Strela-2M 30

Agency: N/A

Status: Launch Successful

Launch date: Nov. 11, 1982, 6:14 a.m. UTC

Rocket: Kosmos-3M

Launch pad: 132/1 (132L)

Location: Plesetsk Cosmodrome, Russian Federation

...

Latest news about this satellite

There are no fresh news available about this satellite. Check back as we update our databases every day.


Newsletter sign-up

Weekly statistics, charts and insights to help you stay on top of the space industry.